Powrót do katalogu

YZ-1 R/B

AktywnyMEO
NORAD 43625·ROCKET BODY·🇨🇳 China

Wystrzelony Sep 19, 2018 z Xichang Satellite Launch Center

Loading…

Następne Przeloty (najbliższe 24 godziny)

TLE

ŚwieżeSource: Space-Track

Epoka: Sep 13, 2026, 11:39 UTC

1 43625U 18072D   26256.48544183 -.00000021  00000-0  00000+0 0  9999
2 43625  56.5101  69.0860 0109651  67.5766 293.6090  1.77481554 51757

Śledź YZ-1 R/B w czasie rzeczywistym z AllMySat

Download on the App Store